Search for airport 
image banner adimage banner ad
image banner ad

DAAV - Jijel / Ferhat Abbas

Located in Jijel, Algeria

ICAO - DAAV, IATA - GJL

Data provided by Airmate  

General information

Coordinates: N36°47'40" E5°52'25"
Elevation is 36 feet MSL.
 
View others Airports in Jijel Province

Operational data

Open for public use
Current time UTC:
Current local time:
Weather
METAR: DAAV 290100Z 12004KT CAVOK 17/10 Q1018
TAF: TAF DAAV 282300Z 2900/2924 12008KT CAVOK
View NOTAMs / SUP AIP / TFR affecting this airport [VIEW]
Communications frequencies: [VIEW]

Runways:

RWY identifierQFULength (ft)Width (ft)SurfaceLDA (ft)
17171°7874148ASP
35351°7874148

Airport contact information

Address: Jijel Algeria

Satellite view of DAAV